Location: Ay?beleni
(36.6500°N, 30.3000°E)
Time: 02:50:23
(UTC+00:00)

Cosmos 1455 Rocket - Pass Details

Date: 16 October 2021
Orbit: 604 x 630 km, 82.5° (Epoch: 04 December)

Event Time Altitude Azimuth Distance (km) Brightness Sun altitude
Rises 16:27:27 0° 179° (S) 2,867 6.5 -14.1°
Reaches altitude 10° 16:29:39 10° 177° (S) 1,971 5.6 -14.5°
Maximum altitude 16:33:59 68° 95° (E) 670 3.0 -15.4°
Drops below altitude 10° 16:38:23 10° 12° (NNE) 2,001 5.5 -16.3°
Sets 16:40:39 0° 10° (N) 2,916 6.4 -16.7°
